Regional Weather Roundup
Issued by NWS

Home | Current Version | Previous Version | Graphics & Text | Print | Product List | Glossary On
Versions: 1 2 3 4 5 6 7 8 9 10 11 12 13 14 15 16 17 18 19 20 21 22 23 24 25 26 27 28 29 30 31 32 33 34 35 36 37 38 39 40 41 42 43 44 45 46 47 48 49 50
118
ASUS45 KBOI 260810
RWRID

IDAHO REGIONAL WEATHER ROUNDUP
NATIONAL WEATHER SERVICE BOISE ID
200 AM MDT SUN MAR 26 2017

NOTE: "FAIR" INDICATES FEW OR NO CLOUDS BELOW 12000 FEET
WITH NO SIGNIFICANT WEATHER AND/OR OBSTRUCTIONS TO VISIBILITY

IDZ012-014-260900-
SOUTHWEST IDAHO


CITY           SKY/WX    TMP DP  RH WIND       PRES   REMARKS
BOISE          CLEAR     41  30  65 SE8       29.99S
CALDWELL       CLEAR     37  33  85 NE5         N/A  WCI  33
MOUNTAIN HOME  CLEAR     36  35  94 E3        30.00S
$$

IDZ016-017-260900-
SOUTHCENTRAL IDAHO


CITY           SKY/WX    TMP DP  RH WIND       PRES   REMARKS
BURLEY         CLEAR     34  27  75 SW10      30.00F WCI  26
JEROME         CLEAR     36  30  79 SE6       30.01F WCI  31
TWIN FALLS     CLEAR     35  28  75 S9        30.01F WCI  28
$$

IDZ019>023-260900-
SOUTHEAST IDAHO


CITY           SKY/WX    TMP DP  RH WIND       PRES   REMARKS
IDAHO FALLS    CLEAR     37  27  67 S12       29.98S WCI  29
POCATELLO      CLEAR     38  28  67 SW12      30.01S WCI  30
REXBURG        PTCLDY    36  24  62 S8        29.98S WCI  30
$$

IDZ006-010-011-018-031-032-260900-
CENTRAL IDAHO MOUNTAINS


CITY           SKY/WX    TMP DP  RH WIND       PRES   REMARKS
MCCALL         PTCLDY    27  23  85 CALM      29.97F
HAILEY         PTCLDY    34  23  64 N5        30.01S WCI  30
STANLEY          N/A     20  16  84 S3        30.02S
SALMON         CLOUDY    37  21  52 S7        29.98S WCI  32
CHALLIS        PTCLDY    32  21  64 CALM      30.00S
$$

IDZ002-004-006-007-026-260900-
NORTHERN IDAHO


CITY           SKY/WX    TMP DP  RH WIND       PRES   REMARKS
LEWISTON       CLOUDY    39  34  82 SE6       30.03S WCI  35
LOWELL           N/A     39  36  89 NW3       30.08F
COEUR D`ALENE  CLEAR     35  32  88 S8        30.01S WCI  29
MULLAN PASS    CLOUDY    25  24  96 SW5       29.94S WCI  19
$$




USA.gov is the U.S. government's official web portal to all federal, state and local government web resources and services.